Regional Weather Roundup
Issued by NWS

Home | Current Version | Previous Version | Text Only | Print | Product List | Glossary On
Versions: 1 2 3 4 5 6 7 8 9 10 11 12 13 14 15 16 17 18 19 20 21 22 23 24 25 26 27 28 29 30 31 32 33 34 35 36 37 38 39 40 41 42 43 44 45 46 47 48 49 50
000
ASUS45 KBOI 301910
RWRID
WEATHER ROUNDUP FOR IDAHO
NATIONAL WEATHER SERVICE BOISE ID
100 PM MDT WED JUL 30 2014

NOTE: "FAIR" INDICATES FEW OR NO CLOUDS BELOW 12000 FEET
WITH NO SIGNIFICANT WEATHER AND/OR OBSTRUCTIONS TO VISIBILITY

IDZ012-014-302000-
SOUTHWEST IDAHO


CITY           SKY/WX    TMP DP  RH WIND       PRES   REMARKS
BOISE          MOSUNNY   89  50  26 NE6       30.13F
CALDWELL       MOSUNNY   84  54  34 E3        30.14F
MOUNTAIN HOME  MOSUNNY   85  52  32 SE6       30.14F
$$

IDZ016-017-302000-
SOUTHCENTRAL IDAHO


CITY           SKY/WX    TMP DP  RH WIND       PRES   REMARKS
BURLEY         SUNNY     79  54  41 VRB3      30.21S
JEROME         SUNNY     83  55  38 N3        30.21F
TWIN FALLS     SUNNY     84  50  30 NE8       30.21F
$$

IDZ019>023-302000-
SOUTHEAST IDAHO


CITY           SKY/WX    TMP DP  RH WIND       PRES   REMARKS
IDAHO FALLS    PTSUNNY   76  52  43 NW7       30.26S
POCATELLO      MOSUNNY   83  53  35 NE9       30.23F
REXBURG        PTSUNNY   75  50  41 NW5       30.27F
$$

IDZ006-010-011-018-031-032-302000-
CENTRAL IDAHO MOUNTAINS


CITY           SKY/WX    TMP DP  RH WIND       PRES   REMARKS
MCCALL         PTSUNNY   81  44  27 W10       30.24S
HAILEY         PTSUNNY   75  55  50 SE16      30.29F
STANLEY          N/A     80  39  23 CALM      30.32F
SALMON         MOSUNNY   79  54  41 SW3       30.14F
CHALLIS        MOSUNNY   82  45  27 CALM      30.23F
$$

IDZ002-004-006-007-026-302000-
NORTHERN IDAHO


CITY           SKY/WX    TMP DP  RH WIND       PRES   REMARKS
LEWISTON       PTSUNNY   93  45  19 VRB6      30.02F
LOWELL           N/A     88  52  29 N3        30.03F
COEUR D`ALENE  MOSUNNY   88  48  25 CALM      30.04F
MULLAN PASS    SUNNY     77  40  26 VRB3      30.32S
$$


USA.gov is the U.S. government's official web portal to all federal, state and local government web resources and services.